DateTimeUTC,F1_A11,F1_S11,BsB_S11,BsG_S11,BsR_S11,BbsB_S11,BbsG_S11,BbsR_S11,BaB_A11,BaG_A11,BaR_A11,Tu_S11,T_S11,Uu_S11,U_S11,P_S11,T1_A11
2021-10-18T02:00:00Z,00000200,21000000,,,,,,,0000.03,0000.21,0000.05,16.7,24.0,,00.0,0669.3,30.9
2021-10-18T02:01:00Z,00000200,21000000,,,,,,,-000.22,-000.13,-000.02,16.7,24.0,,00.0,0669.3,30.9
2021-10-18T02:02:00Z,00000200,21000000,,,,,,,0000.01,0000.38,0000.13,16.7,24.0,,00.0,0669.3,30.9
2021-10-18T02:03:00Z,00000200,61000000,,,,,,,0000.37,-000.05,0000.17,16.7,24.0,,00.0,0669.3,30.9
2021-10-18T02:04:00Z,00000200,41000000,0000.24,0000.27,0000.01,-000.18,-000.17,0000.07,0000.28,0000.06,0000.06,16.8,23.7,,00.0,0670.2,30.9
2021-10-18T02:05:00Z,00000200,01000000,-000.01,-000.27,-000.06,0000.89,-000.40,0000.51,-000.00,0000.65,0000.03,16.9,23.7,,00.0,0670.3,30.9
2021-10-18T02:06:00Z,00000200,01000000,0000.46,0000.22,0000.13,0000.34,-000.16,0000.23,0000.46,-000.40,0000.05,17.0,23.7,,00.0,0670.3,30.9
2021-10-18T02:07:00Z,00000200,01000000,-000.37,-000.07,0000.18,0000.05,-000.28,0000.10,-000.13,0000.47,0000.17,17.0,23.7,,00.0,0670.3,30.9
2021-10-18T02:08:00Z,00000200,01000000,0000.56,0000.22,0000.23,0000.09,-000.31,0000.13,0000.34,-000.03,-000.03,17.0,23.7,,00.0,0670.3,30.9
2021-10-18T02:09:00Z,00000200,01000000,-000.08,0000.22,0000.47,0000.44,-000.15,0000.10,0000.08,-000.06,0000.22,17.1,23.7,,00.0,0670.3,30.9
2021-10-18T02:10:00Z,00000200,01000000,0000.42,-000.01,0000.01,0000.18,-000.22,0000.05,-000.00,0000.52,0000.18,17.1,23.7,,00.0,0670.3,30.9
2021-10-18T02:11:00Z,00000200,01000000,0000.29,-000.03,0000.14,0000.08,-000.08,0000.07,-000.18,-000.11,-000.12,17.1,23.7,,00.0,0670.4,30.9
2021-10-18T02:12:00Z,00000200,01000000,0000.31,0000.19,0000.13,0000.25,0000.23,0000.03,0000.68,-000.13,0000.08,17.1,23.7,,00.0,0670.3,30.9
2021-10-18T02:13:00Z,00000200,01000000,0000.73,0000.46,0000.31,0000.94,0000.06,0000.07,-000.17,0000.49,0000.16,17.0,23.7,,00.0,0670.3,30.9
2021-10-18T02:14:00Z,00000200,01000000,0000.96,0000.85,0000.76,-000.10,0000.07,-000.06,0000.66,0000.16,0000.23,16.9,23.6,,00.0,0670.3,30.9
2021-10-18T02:15:00Z,00000200,01000000,0001.83,0001.06,0000.55,0000.51,0000.06,0000.06,0000.40,0000.38,0000.46,16.9,23.6,,00.0,0670.3,30.9
2021-10-18T02:16:00Z,00000200,01000000,0001.47,0001.20,0000.64,0000.44,-000.03,0000.21,0000.20,0000.36,0000.08,16.9,23.6,,00.0,0670.3,30.9
2021-10-18T02:17:00Z,00000200,01000000,0002.14,0001.60,0000.86,0000.49,0000.21,0000.17,0000.80,0000.48,0000.44,16.9,23.6,,00.0,0670.3,30.9
2021-10-18T02:18:00Z,00000200,01000000,0001.81,0001.57,0000.71,0000.20,-000.14,-000.02,0000.43,0000.14,0000.38,16.9,23.6,,00.0,0670.3,30.9
2021-10-18T02:19:00Z,00000200,01000000,0001.77,0001.31,0001.09,0000.31,0000.12,0000.14,0000.58,0000.65,0000.17,16.9,23.6,,00.0,0670.3,30.9
2021-10-18T02:20:00Z,00000200,01000000,0001.54,0001.37,0001.00,0001.05,0000.08,0000.06,0000.16,0000.54,0000.37,17.0,23.6,,00.0,0670.3,30.9
2021-10-18T02:21:00Z,00000200,01000000,0001.48,0001.51,0000.70,0000.74,-000.16,0000.30,0000.31,0000.28,0000.33,17.0,23.6,,00.0,0670.3,30.9
2021-10-18T02:22:00Z,00000200,01000000,0001.93,0001.62,0001.01,-000.29,-000.04,0000.28,0000.95,0000.47,0000.36,17.0,23.6,,00.0,0670.4,30.9
2021-10-18T02:23:00Z,00000200,01000000,0002.99,0001.89,0000.73,0000.53,0000.19,0000.09,0000.36,0000.68,0000.61,17.0,23.6,,00.0,0670.3,30.9
2021-10-18T02:24:00Z,00000200,01000000,0001.77,0002.12,0000.71,0000.16,0000.25,0000.32,0000.59,0000.69,0000.51,17.1,23.6,,00.0,0670.3,30.9
2021-10-18T02:25:00Z,00000200,01000000,0001.97,0001.86,0001.22,0000.99,0000.07,0000.25,0000.78,0000.08,0000.20,17.1,23.7,,00.0,0670.3,30.9
2021-10-18T02:26:00Z,00000200,01000000,0002.35,0001.79,0000.90,0000.25,0000.26,0000.23,0000.41,0000.48,0000.37,17.1,23.7,,00.0,0670.3,30.9
2021-10-18T02:27:00Z,00000200,01000000,0001.82,0001.64,0001.09,0000.71,0000.11,0000.17,0000.37,0000.65,-000.11,17.1,23.7,,00.0,0670.4,30.9
2021-10-18T02:28:00Z,00000200,01000000,0002.41,0001.45,0000.44,0000.02,0000.18,0000.17,0000.57,0000.71,0000.48,17.1,23.7,,00.0,0670.4,30.9
2021-10-18T02:29:00Z,00000200,01000000,0001.83,0001.71,0000.71,-000.54,0000.15,0000.12,0000.35,-000.00,0000.30,17.1,23.7,,00.0,0670.4,30.9
2021-10-18T02:30:00Z,00000200,01000000,0001.90,0001.39,0000.50,0000.80,-000.01,0000.16,0000.51,0000.26,0000.37,17.1,23.7,,00.0,0670.4,30.9
2021-10-18T02:31:00Z,00000200,01000000,0002.43,0001.48,0001.04,0000.76,-000.17,0000.34,0000.45,0000.26,0000.35,17.1,23.6,,00.0,0670.4,30.9
2021-10-18T02:32:00Z,00000200,01000000,0002.33,0001.44,0000.82,0000.11,-000.25,0000.04,0000.61,0000.57,0000.38,17.1,23.6,,00.0,0670.4,30.9
2021-10-18T02:33:00Z,00000200,01000000,0001.33,0001.56,0001.08,0000.07,0000.21,0000.22,0000.28,0000.51,0000.29,17.1,23.7,,00.0,0670.4,30.9
2021-10-18T02:34:00Z,00000200,01000000,0001.40,0001.57,0001.02,0000.44,0000.23,0000.41,0000.31,0000.40,-000.18,17.1,23.7,,00.0,0670.4,30.9
2021-10-18T02:35:00Z,00000200,01000000,0002.32,0001.59,0001.19,0000.57,0000.25,0000.23,0000.58,0000.57,0000.69,17.2,23.7,,00.0,0670.4,30.9
2021-10-18T02:36:00Z,00000200,01000000,0002.04,0001.53,0000.76,0000.07,-000.02,0000.27,0000.48,0000.53,0000.31,17.1,23.7,,00.0,0670.4,30.9
2021-10-18T02:37:00Z,00000200,01000000,0002.25,0001.66,0001.04,0000.69,-000.08,0000.07,0000.51,0000.12,0000.19,17.2,23.7,,00.0,0670.4,30.9
2021-10-18T02:38:00Z,00000200,01000000,0002.50,0001.30,0000.72,0000.29,0000.16,0000.42,0000.45,0000.47,0000.40,17.2,23.7,,00.0,0670.5,30.9
2021-10-18T02:39:00Z,00000200,01000000,0001.70,0001.51,0000.84,-000.30,0000.01,-000.10,0000.16,0000.19,0000.06,17.2,23.7,,00.0,0670.5,30.9
2021-10-18T02:40:00Z,00000200,01000000,0002.17,0001.31,0000.86,0000.38,0000.00,0000.36,0000.57,0000.00,0000.44,17.2,23.7,,00.0,0670.5,30.9
2021-10-18T02:41:00Z,00000200,01000000,0003.03,0001.70,0000.89,0000.12,-000.16,0000.45,-000.04,0000.62,0000.17,17.2,23.7,,00.0,0670.5,30.9
2021-10-18T02:42:00Z,00000200,01000000,0001.61,0001.36,0000.67,0001.06,0000.41,0000.24,0000.46,0000.48,0000.18,17.2,23.7,,00.0,0670.5,30.9
2021-10-18T02:43:00Z,00000200,01000000,0002.60,0001.35,0000.88,-000.01,0000.32,0000.15,0000.45,0000.22,0000.52,17.1,23.7,,00.0,0670.5,30.9
2021-10-18T02:44:00Z,00000200,01000000,0001.39,0001.16,0000.72,0000.25,-000.01,0000.09,0000.19,0000.49,-000.29,17.0,23.6,,00.0,0670.5,30.9
2021-10-18T02:45:00Z,00000200,01000000,0002.25,0001.19,0000.87,0000.18,0000.05,0000.15,0000.68,0000.50,0000.73,16.9,23.6,,00.0,0670.5,30.9
2021-10-18T02:46:00Z,00000200,01000000,0003.01,0001.27,0000.78,0000.92,0000.25,0000.20,0000.69,0000.27,0000.05,16.9,23.5,,00.0,0670.5,30.8
2021-10-18T02:47:00Z,00000200,01000000,0002.28,0001.61,0000.86,0000.57,0000.08,0000.19,0000.48,0000.34,0000.51,17.0,23.6,,00.0,0670.5,30.9
2021-10-18T02:48:00Z,00000200,01000000,0002.55,0001.43,0000.82,-000.05,-000.11,0000.20,0000.24,0000.62,0000.50,17.0,23.6,,00.0,0670.5,30.9
2021-10-18T02:49:00Z,00000200,01000000,0002.43,0001.39,0001.05,0000.75,0000.09,0000.25,0000.68,0000.20,0000.26,17.0,23.6,,00.0,0670.5,30.9
2021-10-18T02:50:00Z,00000200,01000000,0002.25,0001.86,0001.16,0000.56,0000.36,0000.09,0000.06,0000.37,-000.00,17.0,23.6,,00.0,0670.5,30.9
2021-10-18T02:51:00Z,00000200,01000000,0002.12,0001.38,0000.78,0000.41,0000.07,-000.05,0000.27,0000.64,0000.45,17.0,23.6,,00.0,0670.5,30.9
2021-10-18T02:52:00Z,00000200,01000000,0001.27,0001.50,0000.98,0000.61,-000.16,0000.23,0000.69,0000.07,0000.18,17.1,23.6,,00.0,0670.5,30.9
2021-10-18T02:53:00Z,00000200,01000000,0001.76,0001.48,0001.00,0000.35,-000.04,0000.01,0000.39,0000.52,0000.02,17.1,23.6,,00.0,0670.5,30.9
2021-10-18T02:54:00Z,00000200,01000000,0002.21,0001.28,0000.89,0000.06,0000.03,0000.29,0000.56,0000.24,0000.60,17.1,23.7,,00.0,0670.5,30.9
2021-10-18T02:55:00Z,00000200,01000000,0002.43,0001.40,0000.90,0000.62,-000.23,-000.04,0000.27,0000.62,0000.27,17.2,23.7,,00.0,0670.5,30.9
2021-10-18T02:56:00Z,00000200,01000000,0002.12,0001.38,0000.85,0000.03,0000.13,0000.05,0000.49,0000.30,0000.19,17.2,23.7,,00.0,0670.5,30.9
2021-10-18T02:57:00Z,00000200,41000000,,,,,,,-000.11,0000.30,-000.11,17.3,23.7,,00.0,0670.5,30.9
2021-10-18T02:58:00Z,00000200,61000000,,,,,,,-000.14,-000.33,0000.24,16.9,23.9,,00.0,0669.5,30.9
2021-10-18T02:59:00Z,00000200,21000000,,,,,,,0000.17,0000.03,-000.12,16.9,24.0,,00.0,0669.5,30.9
